• en France
  • Liste des pays
  • À 7 jours
  • Température de l'eau
  • Carte satellitaire
  • Carte météo
  • Widgets météo
  • user-avatar
    Se connecter

    Météo par heure à Milaczewek

    Ce jour, 20 Juin, Mercredi

    Heure Température Précipitation Vent Pression Humidité
    00:00 +17°C° 0 mm 2 m/s 751 mmHg 83%
    01:00 +17°C° 0 mm 2 m/s 751 mmHg 83%
    02:00 +17°C° 0 mm 2 m/s 751 mmHg 84%
    03:00 +16°C° 0 mm 1 m/s 751 mmHg 86%
    04:00 +16°C° 0 mm 1 m/s 751 mmHg 87%
    05:00 +18°C° 0 mm 2 m/s 752 mmHg 82%
    06:00 +19°C° 0 mm 2 m/s 752 mmHg 78%
    07:00 +21°C° 0 mm 2 m/s 752 mmHg 73%
    08:00 +23°C° 0 mm 2 m/s 752 mmHg 68%
    09:00 +24°C° 0 mm 2 m/s 752 mmHg 63%
    10:00 +25°C° 0 mm 3 m/s 752 mmHg 58%
    11:00 +26°C° 0 mm 3 m/s 751 mmHg 56%
    12:00 +26°C° 0 mm 3 m/s 751 mmHg 54%
    13:00 +27°C° 0 mm 3 m/s 751 mmHg 52%
    14:00 +27°C° 0 mm 3 m/s 750 mmHg 53%
    15:00 +27°C° 0 mm 2 m/s 750 mmHg 55%
    16:00 +27°C° 0 mm 2 m/s 750 mmHg 56%
    17:00 +26°C° 0 mm 2 m/s 749 mmHg 60%
    18:00 +25°C° 0 mm 1 m/s 749 mmHg 64%
    19:00 +25°C° 0 mm 1 m/s 749 mmHg 68%
    20:00 +24°C° 0 mm 1 m/s 749 mmHg 70%
    21:00 +23°C° 0 mm 1 m/s 749 mmHg 71%
    22:00 +21°C° 0 mm 2 m/s 748 mmHg 73%
    23:00 +20°C° 0 mm 2 m/s 748 mmHg 74%

    Demain, 21 Juin, Jeudi

    Heure Température Précipitation Vent Pression Humidité
    00:00 +20°C° 0 mm 2 m/s 748 mmHg 75%
    01:00 +20°C° 0 mm 3 m/s 748 mmHg 76%
    02:00 +19°C° 0 mm 3 m/s 747 mmHg 77%
    03:00 +19°C° 0 mm 3 m/s 747 mmHg 79%
    04:00 +19°C° 0 mm 3 m/s 746 mmHg 80%
    05:00 +20°C° 0 mm 3 m/s 746 mmHg 77%
    06:00 +21°C° 0 mm 4 m/s 746 mmHg 74%
    07:00 +23°C° 0 mm 4 m/s 745 mmHg 71%
    08:00 +25°C° 0,1 mm 4 m/s 745 mmHg 66%
    09:00 +27°C° 0,1 mm 4 m/s 744 mmHg 61%
    10:00 +28°C° 0,1 mm 4 m/s 744 mmHg 55%
    11:00 +29°C° 0 mm 5 m/s 743 mmHg 54%
    12:00 +29°C° 0 mm 5 m/s 742 mmHg 52%
    13:00 +30°C° 0 mm 6 m/s 741 mmHg 51%
    14:00 +30°C° 0 mm 5 m/s 740 mmHg 53%
    15:00 +29°C° 0 mm 5 m/s 740 mmHg 55%
    16:00 +29°C° 0 mm 5 m/s 739 mmHg 57%
    17:00 +26°C° 0,4 mm 6 m/s 739 mmHg 64%
    18:00 +22°C° 0,4 mm 7 m/s 740 mmHg 72%
    19:00 +20°C° 0,4 mm 8 m/s 740 mmHg 80%
    20:00 +17°C° 0,1 mm 7 m/s 741 mmHg 76%
    21:00 +15°C° 0,1 mm 7 m/s 742 mmHg 72%
    22:00 +14°C° 0,1 mm 7 m/s 742 mmHg 68%
    23:00 +12°C° 0 mm 7 m/s 743 mmHg 68%

    Après-demain, 22 Juin, Vendredi

    Heure Température Précipitation Vent Pression Humidité
    00:00 +11°C° 0 mm 7 m/s 744 mmHg 69%
    01:00 +10°C° 0 mm 7 m/s 744 mmHg 70%
    02:00 +9°C° 0 mm 6 m/s 744 mmHg 71%
    03:00 +9°C° 0 mm 6 m/s 745 mmHg 71%
    04:00 +8°C° 0 mm 5 m/s 745 mmHg 72%
    05:00 +9°C° 0 mm 6 m/s 745 mmHg 70%
    06:00 +10°C° 0 mm 7 m/s 745 mmHg 68%
    07:00 +11°C° 0 mm 9 m/s 745 mmHg 65%
    08:00 +11°C° 0 mm 8 m/s 745 mmHg 65%
    09:00 +12°C° 0 mm 8 m/s 745 mmHg 64%
    10:00 +12°C° 0 mm 8 m/s 745 mmHg 63%
    11:00 +13°C° 0,2 mm 8 m/s 745 mmHg 62%
    12:00 +15°C° 0,2 mm 8 m/s 745 mmHg 61%
    13:00 +16°C° 0,2 mm 8 m/s 745 mmHg 60%
    14:00 +16°C° 0,4 mm 8 m/s 745 mmHg 60%
    15:00 +16°C° 0,4 mm 7 m/s 745 mmHg 61%
    16:00 +16°C° 0,4 mm 7 m/s 745 mmHg 62%
    17:00 +16°C° 0,1 mm 6 m/s 745 mmHg 65%
    18:00 +15°C° 0,1 mm 5 m/s 745 mmHg 68%
    19:00 +14°C° 0,1 mm 4 m/s 746 mmHg 71%
    20:00 +13°C° 0 mm 4 m/s 746 mmHg 75%
    21:00 +12°C° 0 mm 4 m/s 746 mmHg 79%
    22:00 +11°C° 0 mm 4 m/s 746 mmHg 83%
    23:00 +11°C° 0 mm 4 m/s 746 mmHg 83%

    23 Juin, Samedi

    Heure Température Précipitation Vent Pression Humidité
    00:00 +11°C° 0 mm 4 m/s 746 mmHg 84%
    01:00 +10°C° 0 mm 4 m/s 746 mmHg 84%
    02:00 +9°C° 0 mm 5 m/s 746 mmHg 86%
    03:00 +8°C° 0 mm 5 m/s 746 mmHg 89%
    04:00 +8°C° 0 mm 5 m/s 746 mmHg 91%
    05:00 +9°C° 0 mm 5 m/s 746 mmHg 87%
    06:00 +10°C° 0 mm 6 m/s 746 mmHg 83%
    07:00 +11°C° 0 mm 7 m/s 746 mmHg 79%
    08:00 +11°C° 0,1 mm 7 m/s 746 mmHg 75%
    09:00 +12°C° 0,1 mm 7 m/s 746 mmHg 72%
    10:00 +12°C° 0,1 mm 7 m/s 746 mmHg 68%
    11:00 +14°C° 0 mm 7 m/s 746 mmHg 66%
    12:00 +14°C° 0 mm 7 m/s 746 mmHg 64%
    13:00 +15°C° 0 mm 7 m/s 746 mmHg 62%
    14:00 +15°C° 0,1 mm 7 m/s 746 mmHg 62%
    15:00 +16°C° 0,1 mm 7 m/s 746 mmHg 62%
    16:00 +16°C° 0,1 mm 7 m/s 746 mmHg 62%
    17:00 +15°C° 0,1 mm 6 m/s 747 mmHg 66%
    18:00 +15°C° 0,1 mm 5 m/s 747 mmHg 70%
    19:00 +14°C° 0,1 mm 4 m/s 747 mmHg 73%
    20:00 +13°C° 0 mm 4 m/s 747 mmHg 76%
    21:00 +13°C° 0 mm 4 m/s 747 mmHg 78%
    22:00 +12°C° 0 mm 4 m/s 748 mmHg 81%
    23:00 +12°C° 0 mm 4 m/s 748 mmHg 84%

    24 Juin, Dimanche

    Heure Température Précipitation Vent Pression Humidité
    00:00 +12°C° 0 mm 4 m/s 748 mmHg 86%
    01:00 +11°C° 0 mm 4 m/s 748 mmHg 89%
    02:00 +11°C° 0,1 mm 4 m/s 748 mmHg 91%
    03:00 +10°C° 0,1 mm 4 m/s 748 mmHg 93%
    04:00 +9°C° 0,1 mm 3 m/s 748 mmHg 95%
    05:00 +11°C° 0 mm 4 m/s 748 mmHg 91%
    06:00 +12°C° 0 mm 4 m/s 748 mmHg 87%
    07:00 +13°C° 0 mm 4 m/s 749 mmHg 82%
    08:00 +15°C° 0,1 mm 4 m/s 749 mmHg 75%
    09:00 +17°C° 0,1 mm 4 m/s 749 mmHg 68%
    10:00 +19°C° 0,1 mm 4 m/s 749 mmHg 61%
    11:00 +20°C° 0,2 mm 4 m/s 749 mmHg 59%
    12:00 +20°C° 0,2 mm 4 m/s 749 mmHg 56%
    13:00 +21°C° 0,2 mm 4 m/s 749 mmHg 54%
    14:00 +21°C° 0,2 mm 4 m/s 749 mmHg 54%
    15:00 +21°C° 0,2 mm 4 m/s 749 mmHg 55%
    16:00 +21°C° 0,2 mm 4 m/s 749 mmHg 55%
    17:00 +20°C° 0,3 mm 3 m/s 749 mmHg 61%
    18:00 +18°C° 0,3 mm 3 m/s 749 mmHg 67%
    19:00 +17°C° 0,3 mm 2 m/s 750 mmHg 73%
    20:00 +16°C° 0 mm 2 m/s 750 mmHg 76%
    21:00 +15°C° 0 mm 2 m/s 750 mmHg 78%
    22:00 +14°C° 0 mm 2 m/s 750 mmHg 81%
    23:00 +14°C° 0 mm 2 m/s 751 mmHg 82%

    25 Juin, Lundi

    Heure Température Précipitation Vent Pression Humidité
    00:00 +13°C° 0 mm 2 m/s 751 mmHg 84%
    01:00 +13°C° 0 mm 2 m/s 751 mmHg 86%
    02:00 +12°C° 0 mm 1 m/s 751 mmHg 86%
    03:00 +12°C° 0 mm 1 m/s 751 mmHg 86%
    04:00 +12°C° 0 mm 1 m/s 751 mmHg 85%
    05:00 +14°C° 0 mm 1 m/s 751 mmHg 79%
    06:00 +15°C° 0 mm 1 m/s 752 mmHg 73%
    07:00 +18°C° 0 mm 1 m/s 752 mmHg 67%
    08:00 +19°C° 0 mm 1 m/s 752 mmHg 61%
    09:00 +21°C° 0 mm 1 m/s 752 mmHg 54%
    10:00 +23°C° 0 mm 1 m/s 752 mmHg 47%
    11:00 +23°C° 0 mm 1 m/s 752 mmHg 44%
    12:00 +24°C° 0 mm 1 m/s 752 mmHg 42%
    13:00 +25°C° 0 mm 1 m/s 752 mmHg 40%
    14:00 +25°C° 0 mm 1 m/s 752 mmHg 40%
    15:00 +25°C° 0 mm 1 m/s 752 mmHg 40%
    16:00 +25°C° 0 mm 1 m/s 752 mmHg 41%
    17:00 +24°C° 0 mm 1 m/s 752 mmHg 46%
    18:00 +23°C° 0 mm 1 m/s 752 mmHg 52%
    19:00 +22°C° 0 mm 1 m/s 752 mmHg 58%
    20:00 +21°C° 0 mm 1 m/s 753 mmHg 60%
    21:00 +19°C° 0 mm 1 m/s 753 mmHg 63%
    22:00 +18°C° 0 mm 1 m/s 753 mmHg 65%
    23:00 +16°C° 0 mm 1 m/s 754 mmHg 68%
    Voir plus